Retour au catalogue

SL-6 R/B(2)

ActifHEO
NORAD 11909·ROCKET BODY·🇷🇺 Russia

Lancé Jul 18, 1980 depuis Plesetsk Cosmodrome

Loading…

Prochains Passages (prochaines 24 heures)

TLE

FraisSource: Space-Track

Époque: Sep 7, 2026, 09:10 UTC

1 11909U 80063D   26250.38217288  .00000980  00000-0  00000-0 0  9998
2 11909  63.8430   8.0669 7335030 277.3715  12.3052  1.96854514331247

Suivez SL-6 R/B(2) en temps réel avec AllMySat

Download on the App Store